[[{"header":{"parameterUnit":"m.s-1","parameterCategory":1,"la1":30.2991,"la2":30.254,"lo1":-89.0895,"lo2":-89.0444,"dy":0.0017,"dx":0.0017,"nx":28,"ny":28,"refTime":"2025-12-30T03:00:00:Z","depth":0,"parameterNumber":2,"parameterNumberName":"U-component_of_WINDS"},"data":[0,0,0,0,0,0,0,0,0,0,0,0,0,0,0,0,0,0,0,0,0,0,0,0,0,0,0,0,0,0,0,0,0,0,0,0,0,0,0,0,0,0,0,0,0,0,0,0,0,0,0,0,0,0,0,0,0,0,2.17,2.17,0,2.1704,2.1704,2.1704,2.1667,2.1666,2.1665,2.1664,2.1668,2.1669,2.167,0,0,0,0,0,0,0,0,0,0,0,0,0,2.1661,2.1661,2.17,2.17,2.17,2.1704,2.1704,2.1704,2.1667,2.1666,2.1665,2.1664,2.1668,2.1669,2.167,0,0,0,0,0,0,0,0,0,0,0,0,0,2.1672,2.1662,2.17,2.1682,2.1681,2.1704,2.1704,2.1704,2.1668,2.1666,2.1665,2.1663,2.1667,2.1669,2.1671,2.1711,0,0,2.1675,2.1676,0,0,0,0,0,0,0,0,2.1672,2.1674,2.1685,2.1683,2.1682,2.1684,2.1692,2.1706,2.1668,2.1673,2.1664,2.1662,2.1675,2.1675,2.168,2.1711,2.1711,2.1676,2.1676,2.1677,2.1678,0,0,0,0,0,0,0,2.1671,2.1674,2.1701,2.1685,2.1683,2.1674,2.1674,2.1694,2.1682,2.1672,2.1669,2.167,2.1673,2.1678,2.1679,2.1711,2.1675,2.1677,2.1678,2.1678,2.1777,2.1779,0,0,0,0,0,0,2.1673,2.1673,2.1701,2.1702,2.1673,2.1676,2.1676,2.1684,2.1682,2.168,2.1672,2.1669,2.1676,2.1678,2.1679,2.1727,2.1677,2.1679,2.168,2.1776,2.1778,2.1779,0,0,0,0,0,0,2.1672,2.1675,2.1701,2.1687,2.1689,2.1678,2.1688,2.1685,2.169,2.1681,2.1679,2.1679,2.1675,2.1677,2.1704,2.1726,2.1679,2.1681,2.1774,2.1776,2.1779,2.1821,0,0,0,0,0,0,2.1671,2.1675,2.169,2.1687,2.169,2.1725,2.169,2.1687,2.1693,2.1689,2.1687,2.1686,2.1674,2.1701,2.1705,2.1728,2.1682,2.1772,2.1775,2.1778,2.1818,2.1825,2.1831,0,0,0,0,0,2.167,2.1702,2.1691,2.1695,2.1709,2.1727,2.1728,2.1714,2.1695,2.171,2.1705,2.1686,2.1724,2.1704,2.1708,2.1732,2.177,2.1774,2.1777,2.1815,2.1824,2.1831,0,0,0,0,0,0,2.1708,2.1701,2.1689,2.1722,2.1725,2.172,2.1739,2.1724,2.1732,2.1728,2.171,2.171,2.174,2.1739,2.1717,2.1771,2.1743,2.1748,2.1771,2.1779,2.1785,2.1785,2.1683,0,0,0,0,0,2.172,2.1735,2.1729,2.1758,2.1761,2.175,2.1757,2.1746,2.1748,2.175,2.1746,2.1749,2.1762,2.177,2.1782,2.1818,2.1817,2.1836,2.1843,2.1848,2.1852,2.1872,2.188,2.1792,2.1792,2.1792,0,0,2.1746,2.1744,2.1754,2.1766,2.1767,2.1783,2.1751,2.1769,2.1781,2.1752,2.1777,2.1775,2.1777,2.1809,2.1823,2.1809,2.1877,2.1853,2.1858,2.1858,2.1876,2.1885,2.1892,2.1794,2.1794,2.1793,0,0,2.18,2.18,2.1825,2.1827,2.1829,2.1822,2.1828,2.1826,2.1824,2.1848,2.1827,2.1841,2.1863,2.1866,2.187,2.1927,2.191,2.1932,2.1966,2.1985,2.1992,2.1998,2.2018,2.2025,2.1936,2.1936,2.1936,0,2.1831,2.1854,2.1839,2.1859,2.1865,2.1841,2.1865,2.1868,2.1874,2.1879,2.1863,2.1891,2.1891,2.1923,2.1937,2.1941,2.1948,2.1931,2.1992,2.1998,2.2004,2.2022,2.203,2.1939,2.1938,2.1938,2.1938,0,2.1892,2.1909,2.1928,2.1935,2.1943,2.1965,2.1954,2.1964,2.1953,2.1948,2.1974,2.1973,2.1984,2.1991,2.198,2.2022,2.2013,2.1995,2.1967,2.2015,2.2032,2.2039,2.1942,2.1941,2.194,2.194,0,0,2.1969,2.1968,2.1975,2.1978,2.198,2.1993,2.2014,2.2025,2.2034,2.204,2.2057,2.2077,2.2061,2.2066,2.2055,2.2072,2.2117,2.2052,2.2052,2.2064,2.2163,2.2176,2.2184,2.2107,2.2108,2.2109,2.2163,0,2.2021,2.2057,2.2045,2.2082,2.2098,2.2076,2.2095,2.2098,2.2094,2.2106,2.2102,2.2116,2.2094,2.2097,2.2113,2.2109,2.2137,2.2105,2.2122,2.2123,2.2121,2.2194,2.2207,2.2257,2.217,2.2171,2.2172,0,2.2086,2.2095,2.2134,2.2133,2.2139,2.2156,2.2166,2.2178,2.2182,2.2178,2.2184,2.217,2.2192,2.2165,2.2194,2.2172,2.2179,2.2178,2.218,2.218,2.2149,2.2195,2.2273,2.2281,2.2182,2.2181,2.2181,0,2.2138,2.2159,2.2185,2.2188,2.2189,2.2201,2.2202,2.2204,2.2212,2.222,2.2225,2.2236,2.2242,2.2251,2.224,2.2222,2.2271,2.2243,2.2268,2.2268,2.2278,2.2278,2.2358,2.2285,2.2285,2.2284,2.2284,0,2.2197,2.2221,2.2208,2.2224,2.2251,2.2237,2.2264,2.2263,2.2265,2.228,2.2263,2.2277,2.2263,2.2277,2.2269,2.2295,2.2298,2.2295,2.2292,2.2296,2.2296,2.2299,2.2295,2.2286,2.2286,2.2286,2.2285,0,2.2258,2.225,2.2277,2.2276,2.2276,2.2296,2.2295,2.231,2.2305,2.2325,2.2329,2.2321,2.2337,2.2328,2.2343,2.2338,2.2371,2.2364,2.2369,2.2367,2.2392,2.239,2.2477,2.2487,2.2408,2.2409,2.241,0,2.2295,2.2314,2.2315,2.2324,2.2326,2.2341,2.2349,2.2337,2.2346,2.2352,2.2366,2.238,2.239,2.2416,2.2412,2.2424,2.2416,2.2446,2.2418,2.2421,2.2416,2.2414,2.2416,2.2451,2.2452,2.2453,2.2453,0,2.2363,2.2359,2.237,2.2382,2.2391,2.24,2.2406,2.2415,2.2403,2.2414,2.2429,2.2438,2.2454,2.2468,2.2478,2.2479,2.2464,2.2463,2.2469,2.2472,2.2474,2.2473,2.2384,2.246,2.246,2.2459,2.2459,2.2458,2.2413,2.2428,2.2432,2.2446,2.245,2.2457,2.247,2.2468,2.2481,2.2493,2.2485,2.2504,2.2508,2.252,2.2523,2.2538,2.2525,2.2535,2.2537,2.2539,2.2542,2.2473,2.254,2.2539,2.2539,2.2539,2.2539,0,2.2479,2.248,2.2493,2.2503,2.2515,2.2501,2.2508,2.2518,2.2534,2.254,2.255,2.2568,2.2582,2.258,2.2593,2.2604,2.2598,2.2608,2.2606,2.2607,2.2553,2.2545,2.2613,2.2613,2.2613,2.2613,2.2613,2.2613,2.2514,2.2539,2.2536,2.2563,2.2564,2.2582,2.2587,2.2594,2.2598,2.2619,2.263,2.2629,2.2631,2.2644,2.2656,2.2655,2.266,2.2672,2.2669,2.2618,2.2611,2.2604,2.2597,2.2674,2.2674,2.2722,2.2722,2.2723]},{"header":{"parameterUnit":"m.s-1","parameterCategory":1,"la1":30.2991,"la2":30.254,"lo1":-89.0895,"lo2":-89.0444,"dy":0.0017,"dx":0.0017,"nx":28,"ny":28,"refTime":"2025-12-30T03:00:00:Z","depth":0,"parameterNumber":3,"parameterNumberName":"V-component_of_WINDS"},"data":[0,0,0,0,0,0,0,0,0,0,0,0,0,0,0,0,0,0,0,0,0,0,0,0,0,0,0,0,0,0,0,0,0,0,0,0,0,0,0,0,0,0,0,0,0,0,0,0,0,0,0,0,0,0,0,0,0,0,-5.6979,-5.6981,0,-5.716,-5.7162,-5.7164,-5.7122,-5.7119,-5.7115,-5.7112,-5.7294,-5.7302,-5.731,0,0,0,0,0,0,0,0,0,0,0,0,0,-5.6594,-5.6602,-5.6979,-5.6981,-5.6984,-5.716,-5.7162,-5.7165,-5.7123,-5.7119,-5.7114,-5.711,-5.7292,-5.7301,-5.7311,0,0,0,0,0,0,0,0,0,0,0,0,0,-5.6767,-5.6604,-5.6979,-5.6984,-5.6986,-5.7159,-5.7162,-5.7165,-5.7124,-5.7118,-5.7113,-5.7108,-5.7288,-5.73,-5.7312,-5.749,0,0,-5.7349,-5.7354,0,0,0,0,0,0,0,0,-5.6757,-5.6781,-5.6981,-5.6984,-5.6987,-5.7113,-5.7093,-5.7274,-5.7125,-5.7071,-5.7112,-5.7106,-5.7238,-5.7254,-5.7299,-5.7499,-5.7506,-5.735,-5.7357,-5.7363,-5.7366,0,0,0,0,0,0,0,-5.6745,-5.6773,-5.7051,-5.6984,-5.6988,-5.6976,-5.6995,-5.7127,-5.7181,-5.7076,-5.7073,-5.7095,-5.7239,-5.7288,-5.7303,-5.7509,-5.735,-5.736,-5.7368,-5.7373,-5.7863,-5.7868,0,0,0,0,0,0,-5.6731,-5.6763,-5.7045,-5.7056,-5.6857,-5.6987,-5.7009,-5.7078,-5.718,-5.7191,-5.7099,-5.7093,-5.7269,-5.7289,-5.7309,-5.7524,-5.7363,-5.7374,-5.7381,-5.7857,-5.7864,-5.787,0,0,0,0,0,0,-5.6723,-5.6757,-5.7038,-5.6909,-5.6944,-5.7,-5.7078,-5.7084,-5.7133,-5.7198,-5.7207,-5.714,-5.7266,-5.7292,-5.7446,-5.753,-5.7379,-5.739,-5.785,-5.7859,-5.7867,-5.7955,0,0,0,0,0,0,-5.6712,-5.6754,-5.6823,-5.6911,-5.6951,-5.7172,-5.7083,-5.7092,-5.7155,-5.7147,-5.7238,-5.7248,-5.7264,-5.7428,-5.7458,-5.7544,-5.74,-5.7843,-5.7854,-5.7864,-5.7945,-5.7966,-5.7984,0,0,0,0,0,-5.6699,-5.684,-5.6827,-5.6861,-5.7039,-5.7177,-5.72,-5.7216,-5.7162,-5.7231,-5.7272,-5.7245,-5.7516,-5.7444,-5.7477,-5.7568,-5.7838,-5.7851,-5.7864,-5.7936,-5.7962,-5.7983,0,0,0,0,0,0,-5.676,-5.6852,-5.6838,-5.7013,-5.7088,-5.717,-5.7258,-5.7243,-5.7334,-5.7323,-5.7338,-5.7359,-5.7516,-5.7557,-5.7475,-5.7745,-5.7669,-5.7689,-5.7713,-5.7737,-5.7756,-5.7743,-5.741,0,0,0,0,0,-5.6794,-5.69,-5.6974,-5.712,-5.7159,-5.7202,-5.7263,-5.7269,-5.7347,-5.7378,-5.7431,-5.7506,-5.7608,-5.7675,-5.7772,-5.7951,-5.7969,-5.803,-5.8049,-5.8064,-5.8082,-5.8178,-5.8206,-5.7913,-5.7913,-5.7913,0,0,-5.6865,-5.6928,-5.6994,-5.7134,-5.7193,-5.7301,-5.7229,-5.7346,-5.7426,-5.7395,-5.7544,-5.7585,-5.767,-5.7837,-5.7913,-5.7876,-5.8166,-5.8081,-5.8093,-5.8102,-5.8194,-5.8222,-5.8247,-5.7922,-5.792,-5.7919,0,0,-5.7049,-5.7108,-5.7237,-5.7297,-5.7388,-5.7415,-5.7446,-5.7531,-5.7558,-5.7707,-5.7685,-5.778,-5.7956,-5.8017,-5.8071,-5.8279,-5.8257,-5.831,-5.8411,-5.8505,-5.8528,-5.8548,-5.8622,-5.8648,-5.8327,-5.8327,-5.8327,0,-5.7126,-5.7289,-5.7305,-5.7425,-5.7486,-5.7464,-5.7594,-5.7651,-5.7768,-5.7811,-5.7769,-5.7988,-5.8044,-5.8224,-5.8275,-5.832,-5.8355,-5.83,-5.8523,-5.8544,-5.8563,-5.8633,-5.8661,-5.8333,-5.8332,-5.8332,-5.8331,0,-5.7379,-5.7492,-5.7585,-5.7699,-5.7772,-5.7896,-5.7929,-5.8,-5.8,-5.8032,-5.8183,-5.8249,-5.8359,-5.8403,-5.8403,-5.8583,-5.8557,-5.8519,-5.8443,-5.8597,-5.8663,-5.869,-5.8341,-5.8339,-5.8337,-5.8336,0,0,-5.7607,-5.7729,-5.7762,-5.7814,-5.7911,-5.7999,-5.8121,-5.823,-5.829,-5.8372,-5.8474,-5.8623,-5.8588,-5.865,-5.8657,-5.8739,-5.8899,-5.8691,-5.8693,-5.8727,-5.91,-5.9128,-5.9159,-5.8885,-5.889,-5.8894,-5.9093,0,-5.78,-5.8017,-5.8034,-5.823,-5.8334,-5.8314,-5.842,-5.8491,-5.8524,-5.8616,-5.8652,-5.8757,-5.8704,-5.8741,-5.8821,-5.8862,-5.8974,-5.8848,-5.8979,-5.8984,-5.8958,-5.9194,-5.9224,-5.9408,-5.9119,-5.9123,-5.9126,0,-5.8055,-5.8144,-5.835,-5.8433,-5.8477,-5.8573,-5.8673,-5.8762,-5.8842,-5.8859,-5.8928,-5.8924,-5.9049,-5.8968,-5.9139,-5.9053,-5.9107,-5.9136,-5.9143,-5.9156,-5.9064,-5.9212,-5.9467,-5.9495,-5.9167,-5.9164,-5.9161,0,-5.82,-5.8372,-5.8517,-5.8562,-5.8662,-5.873,-5.8774,-5.8849,-5.8913,-5.9,-5.9042,-5.9142,-5.9197,-5.9275,-5.9297,-5.9236,-5.9467,-5.9388,-5.9485,-5.9485,-5.9534,-5.9531,-5.9801,-5.957,-5.957,-5.9569,-5.9569,0,-5.8414,-5.854,-5.8584,-5.8674,-5.8814,-5.8832,-5.8971,-5.9011,-5.9077,-5.9173,-5.9162,-5.9252,-5.9276,-5.937,-5.9388,-5.9527,-5.9552,-5.9569,-5.9572,-5.957,-5.9568,-5.9606,-5.9594,-5.9577,-5.9575,-5.9574,-5.9572,0,-5.86,-5.8635,-5.8792,-5.8874,-5.8897,-5.8997,-5.9067,-5.9152,-5.9183,-5.9304,-5.9334,-5.9382,-5.9492,-5.9523,-5.9654,-5.9666,-5.9829,-5.9821,-5.9803,-5.9803,-5.9898,-5.9888,-6.0202,-6.0243,-5.9985,-5.9988,-5.999,0,-5.8734,-5.8831,-5.8924,-5.8987,-5.9035,-5.9138,-5.9204,-5.9225,-5.9293,-5.939,-5.9464,-5.9573,-5.9661,-5.9838,-5.9884,-5.9984,-5.9978,-6.0081,-5.9993,-5.9987,-5.9979,-5.9973,-5.9982,-6.0097,-6.01,-6.0102,-6.0104,0,-5.8968,-5.898,-5.9076,-5.9177,-5.9256,-5.9337,-5.9414,-5.9467,-5.9498,-5.9575,-5.9689,-5.9757,-5.9892,-6.0,-6.0101,-6.0145,-6.013,-6.0131,-6.0159,-6.0158,-6.0143,-6.0152,-5.9848,-6.0124,-6.0122,-6.0121,-6.012,-6.0119,-5.9132,-5.9217,-5.9296,-5.9402,-5.9462,-5.9535,-5.9619,-5.9661,-5.9756,-5.9868,-5.9874,-5.9997,-6.0072,-6.0207,-6.0257,-6.0352,-6.0322,-6.0362,-6.0372,-6.0381,-6.0389,-6.0128,-6.0371,-6.037,-6.037,-6.037,-6.0369,0,-5.9365,-5.9415,-5.9512,-5.9621,-5.9705,-5.9684,-5.9768,-5.9839,-5.9947,-6.002,-6.0107,-6.0236,-6.0341,-6.0395,-6.0499,-6.0564,-6.056,-6.0591,-6.0586,-6.0596,-6.0411,-6.0377,-6.0593,-6.0593,-6.0593,-6.0593,-6.0592,-6.0592,-5.9496,-5.9639,-5.9661,-5.9832,-5.9881,-6.0001,-6.0051,-6.0118,-6.0175,-6.0321,-6.0408,-6.0443,-6.0508,-6.0616,-6.0711,-6.0724,-6.0762,-6.0797,-6.0806,-6.0632,-6.0609,-6.0588,-6.0555,-6.0805,-6.0806,-6.0983,-6.0985,-6.0986]}]]